Pauls Valley, OK

12:18 PM CDT on April 22, 2018 (GMT -0500)
Pauls Valley Municipal

Weather History for KPVJ - October, 2013

Change the Weather History Date:

Sunday, October 6, 2013

  Actual Average (KADH) Record (KADH)
Temperature  
Mean Temperature 56 °F -  
Max Temperature 69 °F 78 °F 97 °F (1937)
Min Temperature 42 °F 53 °F 36 °F (1976)
Degree Days  
Heating Degree Days 10    
Growing Degree Days 6 (Base 50)    
Moisture  
Dew Point 35 °F    
Average Humidity 54    
Maximum Humidity 93    
Minimum Humidity 20    
Precipitation  
Precipitation 0.00 in - - ()
Sea Level Pressure  
Sea Level Pressure 30.08 in    
Wind  
Wind Speed 6 mph (NW)    
Max Wind Speed 20 mph    
Max Gust Speed 26 mph    
Visibility 10 miles    
Events      
Averages and records for this station are not official NWS values.
T = Trace of Precipitation, MM = Missing Value Source: NWS Daily Summary

Daily Weather History Graph

Daily Weather History Graph

Search for Another Location

Airport or City:

Astronomy

Oct. 06, 2013 Rise Set
Actual Time 7:27 AM CDT 7:05 PM CDT
Civil Twilight 7:02 AM CDT 7:30 PM CDT
Nautical Twilight 6:33 AM CDT 8:00 PM CDT
Astronomical Twilight 6:03 AM CDT 8:29 PM CDT
Moon 9:07 AM CDT (10/6) 8:12 PM CDT (10/6)
Length of Visible Light 12h 28m
Length of Day
11h 38m
Waxing Crescent, 3% of the Moon is Illuminated
Oct 6
Waxing Crescent
Oct 11
First Quarter
Oct 18
Full
Oct 26
Last Quarter
Nov 3
New

Hourly Weather History & Observations

Time (CDT) Temp. Windchill Dew Point Humidity Pressure Visibility Wind Dir Wind Speed Gust Speed Precip Events Conditions
12:15 AM 48.2 °F - 41.0 °F 76% 30.08 in 10.0 mi Calm Calm - N/A   Unknown
12:35 AM 46.4 °F - 41.0 °F 81% 30.08 in 10.0 mi Calm Calm - N/A   Unknown
12:55 AM 46.4 °F - 41.0 °F 81% 30.07 in 10.0 mi Calm Calm - N/A   Unknown
1:15 AM 46.4 °F - 41.0 °F 81% 30.06 in 10.0 mi Calm Calm - N/A   Unknown
1:35 AM 46.4 °F - 41.0 °F 81% 30.07 in 10.0 mi Calm Calm - N/A   Unknown
1:55 AM 46.4 °F - 39.2 °F 76% 30.08 in 10.0 mi Calm Calm - N/A   Unknown
2:15 AM 44.6 °F - 41.0 °F 87% 30.08 in 10.0 mi Calm Calm - N/A   Unknown
2:35 AM 44.6 °F - 41.0 °F 87% 30.08 in 10.0 mi Calm Calm - N/A   Unknown
2:55 AM 44.6 °F 41.4 °F 41.0 °F 87% 30.07 in 10.0 mi NW 5.8 mph - N/A   Unknown
3:15 AM 42.8 °F 38.6 °F 41.0 °F 93% 30.07 in 10.0 mi NW 6.9 mph - N/A   Unknown
3:35 AM 42.8 °F 39.3 °F 41.0 °F 93% 30.07 in 10.0 mi NW 5.8 mph - N/A   Unknown
3:55 AM 42.8 °F 39.3 °F 41.0 °F 93% 30.06 in 10.0 mi WNW 5.8 mph - N/A   Unknown
4:15 AM 42.8 °F 39.3 °F 41.0 °F 93% 30.06 in 10.0 mi WNW 5.8 mph - N/A   Unknown
4:35 AM 44.6 °F 40.7 °F 41.0 °F 87% 30.06 in 10.0 mi WNW 6.9 mph - N/A   Unknown
4:55 AM 42.8 °F 39.3 °F 41.0 °F 93% 30.06 in 10.0 mi WNW 5.8 mph - N/A   Unknown
5:15 AM 44.6 °F 40.7 °F 41.0 °F 87% 30.08 in 10.0 mi WNW 6.9 mph - N/A   Unknown
5:35 AM 44.6 °F 40.7 °F 39.2 °F 81% 30.08 in 10.0 mi WNW 6.9 mph - N/A   Unknown
5:55 AM 44.6 °F 40.7 °F 39.2 °F 81% 30.08 in 10.0 mi WNW 6.9 mph - N/A   Unknown
6:15 AM 42.8 °F 38.6 °F 39.2 °F 87% 30.08 in 10.0 mi WNW 6.9 mph - N/A   Unknown
6:35 AM 42.8 °F 39.3 °F 37.4 °F 81% 30.10 in 10.0 mi WNW 5.8 mph - N/A   Unknown
6:55 AM 42.8 °F 39.3 °F 37.4 °F 81% 30.10 in 10.0 mi WNW 5.8 mph - N/A   Unknown
7:15 AM 42.8 °F 39.3 °F 37.4 °F 81% 30.11 in 10.0 mi WNW 5.8 mph - N/A   Unknown
7:35 AM 42.8 °F 38.6 °F 37.4 °F 81% 30.11 in 10.0 mi WNW 6.9 mph - N/A   Unknown
7:55 AM 42.8 °F 39.3 °F 37.4 °F 81% 30.11 in 10.0 mi WNW 5.8 mph - N/A   Unknown
8:15 AM 44.6 °F 39.7 °F 37.4 °F 76% 30.12 in 10.0 mi WNW 9.2 mph - N/A   Unknown
8:35 AM 46.4 °F 42.9 °F 37.4 °F 71% 30.13 in 10.0 mi NW 6.9 mph - N/A   Unknown
8:55 AM 50.0 °F - 37.4 °F 62% 30.13 in 10.0 mi NW 10.4 mph - N/A   Unknown
9:15 AM 51.8 °F - 35.6 °F 54% 30.13 in 10.0 mi NW 10.4 mph - N/A   Unknown
9:35 AM 51.8 °F - 33.8 °F 50% 30.13 in 10.0 mi NW 11.5 mph - N/A   Unknown
9:55 AM 53.6 °F - 33.8 °F 47% 30.14 in 10.0 mi NW 12.7 mph 19.6 mph N/A   Unknown
10:15 AM 53.6 °F - 33.8 °F 47% 30.13 in 10.0 mi NW 13.8 mph - N/A   Unknown
10:35 AM 55.4 °F - 32.0 °F 41% 30.13 in 10.0 mi NW 12.7 mph - N/A   Unknown
10:55 AM 55.4 °F - 32.0 °F 41% 30.13 in 10.0 mi NW 12.7 mph 19.6 mph N/A   Unknown
11:15 AM 59.0 °F - 33.8 °F 39% 30.13 in 10.0 mi WNW 15.0 mph 23.0 mph N/A   Unknown
11:35 AM 60.8 °F - 33.8 °F 36% 30.12 in 10.0 mi NW 15.0 mph 23.0 mph N/A   Unknown
11:55 AM 62.6 °F - 33.8 °F 34% 30.11 in 10.0 mi NW 17.3 mph 21.9 mph N/A   Unknown
12:15 PM 64.4 °F - 32.0 °F 30% 30.11 in 10.0 mi NW 18.4 mph 24.2 mph N/A   Unknown
12:35 PM 64.4 °F - 32.0 °F 30% 30.11 in 10.0 mi NNW 15.0 mph - N/A   Unknown
12:55 PM 64.4 °F - 30.2 °F 28% 30.11 in 10.0 mi NNW 19.6 mph 23.0 mph N/A   Unknown
1:15 PM 68.0 °F - 32.0 °F 26% 30.10 in 10.0 mi NNW 13.8 mph 21.9 mph N/A   Unknown
1:35 PM 68.0 °F - 32.0 °F 26% 30.10 in 10.0 mi NNW 13.8 mph 19.6 mph N/A   Unknown
1:55 PM 68.0 °F - 32.0 °F 26% 30.09 in 10.0 mi NW 10.4 mph 25.3 mph N/A   Unknown
2:15 PM 69.8 °F - 30.2 °F 23% 30.08 in 10.0 mi NNW 13.8 mph 19.6 mph N/A   Unknown
2:35 PM 69.8 °F - 26.6 °F 20% 30.07 in 10.0 mi NW 17.3 mph 24.2 mph N/A   Unknown
2:55 PM 69.8 °F - 28.4 °F 21% 30.06 in 10.0 mi NW 16.1 mph 19.6 mph N/A   Unknown
3:15 PM 69.8 °F - 28.4 °F 21% 30.05 in 10.0 mi NNW 16.1 mph 21.9 mph N/A   Unknown
3:35 PM 69.8 °F - 28.4 °F 21% 30.05 in 10.0 mi NNW 13.8 mph 23.0 mph N/A   Unknown
3:55 PM 69.8 °F - 30.2 °F 23% 30.05 in 10.0 mi NNW 18.4 mph 26.5 mph N/A   Unknown
4:15 PM 69.8 °F - 30.2 °F 23% 30.05 in 10.0 mi NNW 13.8 mph 20.7 mph N/A   Unknown
4:35 PM 69.8 °F - 28.4 °F 21% 30.05 in 10.0 mi NNW 17.3 mph 23.0 mph N/A   Unknown
4:55 PM 69.8 °F - 28.4 °F 21% 30.05 in 10.0 mi NNW 16.1 mph 21.9 mph N/A   Unknown
5:15 PM 69.8 °F - 28.4 °F 21% 30.05 in 10.0 mi NW 12.7 mph 19.6 mph N/A   Unknown
5:35 PM 69.8 °F - 30.2 °F 23% 30.05 in 10.0 mi NNW 12.7 mph 23.0 mph N/A   Unknown
5:55 PM 69.8 °F - 30.2 °F 23% 30.05 in 10.0 mi NNW 11.5 mph 17.3 mph N/A   Unknown
6:15 PM 68.0 °F - 30.2 °F 24% 30.05 in 10.0 mi NNW 11.5 mph - N/A   Unknown
6:35 PM 68.0 °F - 32.0 °F 26% 30.05 in 10.0 mi NNW 5.8 mph - N/A   Unknown
6:55 PM 64.4 °F - 32.0 °F 30% 30.06 in 10.0 mi NNW 3.5 mph - N/A   Unknown
7:15 PM 62.6 °F - 32.0 °F 32% 30.06 in 10.0 mi Calm Calm - N/A   Unknown
7:35 PM 60.8 °F - 32.0 °F 34% 30.06 in 10.0 mi Calm Calm - N/A   Unknown
7:55 PM 57.2 °F - 37.4 °F 48% 30.06 in 10.0 mi Calm Calm - N/A   Unknown
8:15 PM 55.4 °F - 35.6 °F 47% 30.06 in 10.0 mi Calm Calm - N/A   Unknown
8:35 PM 57.2 °F - 35.6 °F 44% 30.07 in 10.0 mi Calm Calm - N/A   Unknown
8:55 PM 59.0 °F - 33.8 °F 39% 30.07 in 10.0 mi Calm Calm - N/A   Unknown
9:15 PM 55.4 °F - 33.8 °F 44% 30.08 in 10.0 mi SW 3.5 mph - N/A   Unknown
9:35 PM 53.6 °F - 35.6 °F 51% 30.08 in 10.0 mi Calm Calm - N/A   Unknown
9:55 PM 59.0 °F - 33.8 °F 39% 30.08 in 10.0 mi Calm Calm - N/A   Unknown
10:15 PM 51.8 °F - 35.6 °F 54% 30.08 in 10.0 mi Calm Calm - N/A   Unknown
10:35 PM 53.6 °F - 35.6 °F 51% 30.08 in 10.0 mi WNW 4.6 mph - N/A   Unknown
10:55 PM 51.8 °F - 37.4 °F 58% 30.09 in 10.0 mi Calm Calm - N/A   Unknown
11:15 PM 50.0 °F - 37.4 °F 62% 30.09 in 4.0 mi Calm Calm - N/A   Haze
11:35 PM 50.0 °F - 37.4 °F 62% 30.09 in 10.0 mi Calm Calm - N/A   Unknown
11:55 PM 50.0 °F - 37.4 °F 62% 30.09 in 0.8 mi Calm Calm - N/A   Haze